Tracking 23764 objects as of 17-Oct-2021
HD Live streaming from Space Station
objects crossing your sky now

ONEWEB-0324

Track ONEWEB-0324 now!
10-day predictions
ONEWEB-0324 is classified as:


NORAD ID: 49193
Int'l Code: 2021-083H
Perigee: 614.6 km
Apogee: 642.7 km
Inclination: 87.5 °
Period: 97.1 minutes
Semi major axis: 6999 km
RCS: Unknown
Launch date: September 14, 2021
Source: United Kingdom (UK)
Launch site: TYURATAM MISSILE AND SPACE COMPLEX (TTMTR)
aabbcc
Your satellite tracking list
Your tracking list is empty




NASA's NSSDC Master Catalog

Two Line Element Set (TLE):
1 49193U 21083H   21290.58334491 -.01353054  00000-0 -18335+0 0  9993
2 49193  87.5167 317.1104 0020072 183.8517 125.4349 14.82466497  6255
Source of the keplerian elements: AFSPC